星链-3507 (STARLINK-3507 )

导读 | 星芒AI

STARLINK-3507 是 SpaceX Starlink 项目中的一颗低轨通信卫星,属于第 8 批组网发射的星群之一。该卫星于 2021 年发射,运行在约 550 公里的轨道高度,旨在为全球用户提供高速互联网服务。作为 Starlink 系统的重要组成部分,它通过与其他卫星协同工作,实现低延迟、广覆盖的宽带连接,尤其服务于传统网络难以覆盖的偏远地区。该系统持续扩展,推动全球互联网接入的普及与数字化发展。

基本信息
目录编号:
51753
目录名称:
STARLINK-3507
国际标识:
2022-016AR
轨道中心:
EARTH
卫星名称:
星链-3507
卫星全名:
星链-3507 (STARLINK-3507 )
卫星状态:
在轨 (已飞行1352 天)
发射日期:
2022-02-21 UTC
国别 :
美国 (US)
星等 :
--
轨道信息
数据来源 国际轨道数据
星历时间: 2025-11-04T07:33:53+0800
16小时前
查看轨道信息
半长轴: 6917.87km
偏心率: 0.0001362
轨道倾角: 53.215°
近地点辐角 87.927°
升交点赤经 153.454°
平近点角 272.188°
近地点: 538.792km
远地点: 540.678km
周期: 95.437分钟
每日圈数: 15.088434
详细信息
固有亮度:
5
最大亮度:
2.5
卫星平台:
Starlink v1.5
覆盖范围:
全球
运营商:
太空探索技术公司
运营商所在国:
美国
制造商(研发单位):
太空探索技术公司
制造商所在国:
美国
使用方式:
暂无
卫星简介
星链(Starlink)计划是由太空探索技术公司(SpaceX)提出的一个巨型低轨卫星互联网星座项目,计划在2019年至2024年间在太空搭建由约1.2万颗卫星组成的“星链”网络,其中1584颗将部署在地球上空550千米处的近地轨道,并从2020年开始工作。该卫星仍在工作。
2D轨道图
3D轨道图
轨道高度分析图
轨道倾角分析图
轨道综合分析图
查看轨道综合分析图